Flag for South Korea Weather past 2 weeks in Seoul, South Korea

Now
32 °F

Mostly cloudy.


Feels Like: 20 °F
Forecast: 24 / 34 °F
Wind: 18 mph from Northwest

Location: Seoul / Kimp'O International Airport

Current Time: Mar 3, 2015 at 10:43:36 PM

Latest Report: Mar 3, 2015 at 10:00 PM


Visibility: 4 mi

Pressure: 29.95 "Hg

Humidity: 55%

Dew point: 18 °F

Location of SeoulLocation

Historic Weather in Seoul — Graph

°F

Seoul temperature yesterday

Maximum temperature yesterday: 48 °F (at 3:00 PM)
Minimum temperature yesterday: 25 °F (at 5:00 AM)
Average temperature yesterday: 37 °F

Past Weeks' High & Low Weather Summary

 TemperatureHumidityPressure
High52 °F (Feb 25, 2:00 PM)93% (Feb 22, 5:00 AM)30.42 "Hg (Feb 22, 5:00 AM)
Low23 °F (Feb 27, 5:00 AM)15% (Feb 25, 2:00 PM)29.80 "Hg (Mar 3, 4:00 PM)
Average36 °F55%30.14 "Hg
* Reported Feb 16 9:00 PM — Mar 3 9:00 PM, Seoul, Weather by CustomWeather, © 2015

Note: Actual official high and low records may vary slightly from our data, if they occured in-between our weather recording intervals... More about our weather records

Advertising

Seoul weather history for previous 24 hours

 ConditionsComfort  
Time TempWeatherWind HumidityBarometerVisibility
9:00 PM
Tue, Mar 3
34 °FMostly cloudy.14 mph70%29.92 "Hg4 mi
8:00 PM36 °FFog.12 mph75%29.89 "Hg2 mi
7:00 PM39 °FDrizzle. Fog.14 mph75%29.83 "Hg1 mi
6:00 PM39 °FLight rain. Fog.8 mph81%29.80 "Hg2 mi
5:00 PM39 °FLight rain. Fog.9 mph81%29.80 "Hg2 mi
4:00 PM37 °FLight rain. Fog.9 mph81%29.80 "Hg2 mi
3:00 PM37 °FLight rain. Fog.8 mph81%29.83 "Hg1 mi
2:00 PM41 °FLight rain. Mostly cloudy.10 mph57%29.83 "Hg4 mi
1:00 PM43 °FMostly cloudy.9 mph42%29.83 "HgN/A
12:00 PM45 °FMostly cloudy.9 mph37%29.89 "HgN/A
11:00 AM39 °FMostly cloudy.7 mph65%29.89 "Hg3 mi
10:00 AM37 °FFog.8 mph75%29.92 "Hg2 mi
9:00 AM36 °FLight rain. Fog.8 mph81%29.95 "Hg2 mi
8:00 AM34 °FLight rain. Fog.8 mph81%29.95 "Hg2 mi
7:00 AM34 °FLight rain. Fog.10 mph81%29.95 "Hg2 mi
6:00 AM37 °FLight rain. Fog.15 mph60%29.98 "Hg3 mi
5:00 AM37 °FMostly cloudy.7 mph33%29.98 "Hg4 mi
4:00 AM37 °FMostly cloudy.5 mph30%29.98 "Hg4 mi
3:00 AM37 °FMostly cloudy.6 mph33%30.01 "Hg4 mi
2:00 AM39 °FMostly cloudy.6 mph28%30.01 "Hg4 mi
1:00 AM39 °FOvercast.8 mph30%30.04 "Hg4 mi
12:00 AM37 °FOvercast.6 mph35%30.04 "Hg5 mi
11:00 PM
Mon, Mar 2
37 °FClear.7 mph38%30.04 "Hg10 mi
10:00 PM39 °FClear.5 mph28%30.04 "Hg10 mi
Weather by CustomWeather, © 2015

See weather overviewHow to use our weather pages